Year,Month,Day,Hour,Minute,Value (Times are PST for temperature in C)
2009,05,31,00,00,14.80
2009,05,31,00,01,14.80
2009,05,31,00,02,14.80
2009,05,31,00,03,14.80
2009,05,31,00,04,14.80
2009,05,31,00,05,14.80
2009,05,31,00,06,14.80
2009,05,31,00,07,14.80
2009,05,31,00,08,14.70
2009,05,31,00,09,14.70
2009,05,31,00,10,14.60
2009,05,31,00,11,14.60
2009,05,31,00,12,14.50
2009,05,31,00,13,14.50
2009,05,31,00,14,14.40
2009,05,31,00,15,14.50
2009,05,31,00,16,14.40
2009,05,31,00,17,14.40
2009,05,31,00,18,14.40
2009,05,31,00,19,14.50
2009,05,31,00,20,14.50
2009,05,31,00,21,14.50
2009,05,31,00,22,14.50
2009,05,31,00,23,14.60
2009,05,31,00,24,14.60
2009,05,31,00,25,14.60
2009,05,31,00,26,14.50
2009,05,31,00,27,14.50
2009,05,31,00,28,14.50
2009,05,31,00,29,14.40
2009,05,31,00,30,14.30
2009,05,31,00,31,14.30
2009,05,31,00,32,14.20
2009,05,31,00,33,14.20
2009,05,31,00,34,14.20
2009,05,31,00,35,14.20
2009,05,31,00,36,14.20
2009,05,31,00,37,14.20
2009,05,31,00,38,14.20
2009,05,31,00,39,14.20
2009,05,31,00,40,14.20
2009,05,31,00,41,14.20
2009,05,31,00,42,14.20
2009,05,31,00,43,14.10
2009,05,31,00,44,14.20
2009,05,31,00,45,14.20
2009,05,31,00,46,14.20
2009,05,31,00,47,14.20
2009,05,31,00,48,14.20
2009,05,31,00,49,14.20
2009,05,31,00,50,14.20
2009,05,31,00,51,14.20
2009,05,31,00,52,14.20
2009,05,31,00,53,14.20
2009,05,31,00,54,14.20
2009,05,31,00,55,14.20
2009,05,31,00,56,14.20
2009,05,31,00,57,14.20
2009,05,31,00,58,14.20
2009,05,31,00,59,14.20
2009,05,31,01,00,14.20
2009,05,31,01,01,14.20
2009,05,31,01,02,14.20
2009,05,31,01,03,14.20
2009,05,31,01,04,14.20
2009,05,31,01,05,14.20
2009,05,31,01,06,14.20
2009,05,31,01,07,14.20
2009,05,31,01,08,14.20
2009,05,31,01,09,14.20
2009,05,31,01,10,14.20
2009,05,31,01,11,14.20
2009,05,31,01,12,14.20
2009,05,31,01,13,14.20
2009,05,31,01,14,14.10
2009,05,31,01,15,14.10
2009,05,31,01,16,14.10
2009,05,31,01,17,14.10
2009,05,31,01,18,14.00
2009,05,31,01,19,14.00
2009,05,31,01,20,14.00
2009,05,31,01,21,14.00
2009,05,31,01,22,14.00
2009,05,31,01,23,14.00
2009,05,31,01,24,14.00
2009,05,31,01,25,13.90
2009,05,31,01,26,13.90
2009,05,31,01,27,14.00
2009,05,31,01,28,13.90
2009,05,31,01,29,13.90
2009,05,31,01,30,13.90
2009,05,31,01,31,13.90
2009,05,31,01,32,13.90
2009,05,31,01,33,14.00
2009,05,31,01,34,14.00
2009,05,31,01,35,14.00
2009,05,31,01,36,14.00
2009,05,31,01,37,14.10
2009,05,31,01,38,14.10
2009,05,31,01,39,14.10
2009,05,31,01,40,14.10
2009,05,31,01,41,14.10
2009,05,31,01,42,14.00
2009,05,31,01,43,14.00
2009,05,31,01,44,14.00
2009,05,31,01,45,14.00
2009,05,31,01,46,14.00
2009,05,31,01,47,14.00
2009,05,31,01,48,13.90
2009,05,31,01,49,13.90
2009,05,31,01,50,13.90
2009,05,31,01,51,13.90
2009,05,31,01,52,13.90
2009,05,31,01,53,13.90
2009,05,31,01,54,13.90
2009,05,31,01,55,13.90
2009,05,31,01,56,13.90
2009,05,31,01,57,13.90
2009,05,31,01,58,13.90
2009,05,31,01,59,13.90
2009,05,31,02,00,13.90
2009,05,31,02,01,14.00
2009,05,31,02,02,14.00
2009,05,31,02,03,14.00
2009,05,31,02,04,14.00
2009,05,31,02,05,14.00
2009,05,31,02,06,14.00
2009,05,31,02,07,14.00
2009,05,31,02,08,14.00
2009,05,31,02,09,14.00
2009,05,31,02,10,14.00
2009,05,31,02,11,14.00
2009,05,31,02,12,14.10
2009,05,31,02,13,14.10
2009,05,31,02,14,14.20
2009,05,31,02,15,14.20
2009,05,31,02,16,14.20
2009,05,31,02,17,14.20
2009,05,31,02,18,14.10
2009,05,31,02,19,14.10
2009,05,31,02,20,14.00
2009,05,31,02,21,14.00
2009,05,31,02,22,14.00
2009,05,31,02,23,14.00
2009,05,31,02,24,14.00
2009,05,31,02,25,13.90
2009,05,31,02,26,13.90
2009,05,31,02,27,13.90
2009,05,31,02,28,13.90
2009,05,31,02,29,13.90
2009,05,31,02,30,13.90
2009,05,31,02,31,13.90
2009,05,31,02,32,13.90
2009,05,31,02,33,13.90
2009,05,31,02,34,13.90
2009,05,31,02,35,13.90
2009,05,31,02,36,13.90
2009,05,31,02,37,13.90
2009,05,31,02,38,13.90
2009,05,31,02,39,13.90
2009,05,31,02,40,13.90
2009,05,31,02,41,13.90
2009,05,31,02,42,13.90
2009,05,31,02,43,13.80
2009,05,31,02,44,13.80
2009,05,31,02,45,13.80
2009,05,31,02,46,13.80
2009,05,31,02,47,13.70
2009,05,31,02,48,13.70
2009,05,31,02,49,13.70
2009,05,31,02,50,13.70
2009,05,31,02,51,13.70
2009,05,31,02,52,13.70
2009,05,31,02,53,13.70
2009,05,31,02,54,13.70
2009,05,31,02,55,13.80
2009,05,31,02,56,13.80
2009,05,31,02,57,13.80
2009,05,31,02,58,13.90
2009,05,31,02,59,13.90
2009,05,31,03,00,13.90
2009,05,31,03,01,13.90
2009,05,31,03,02,13.90
2009,05,31,03,03,13.80
2009,05,31,03,04,13.80
2009,05,31,03,05,13.80
2009,05,31,03,06,13.80
2009,05,31,03,07,13.70
2009,05,31,03,08,13.70
2009,05,31,03,09,13.70
2009,05,31,03,10,13.70
2009,05,31,03,11,13.70
2009,05,31,03,12,13.70
2009,05,31,03,13,13.60
2009,05,31,03,14,13.60
2009,05,31,03,15,13.60
2009,05,31,03,16,13.60
2009,05,31,03,17,13.60
2009,05,31,03,18,13.50
2009,05,31,03,19,13.50
2009,05,31,03,20,13.50
2009,05,31,03,21,13.40
2009,05,31,03,22,13.40
2009,05,31,03,23,13.40
2009,05,31,03,24,13.30
2009,05,31,03,25,13.30
2009,05,31,03,26,13.30
2009,05,31,03,27,13.30
2009,05,31,03,28,13.30
2009,05,31,03,29,13.20
2009,05,31,03,30,13.20
2009,05,31,03,31,13.20
2009,05,31,03,32,13.20
2009,05,31,03,33,13.30
2009,05,31,03,34,13.30
2009,05,31,03,35,13.30
2009,05,31,03,36,13.30
2009,05,31,03,37,13.30
2009,05,31,03,38,13.30
2009,05,31,03,39,13.30
2009,05,31,03,40,13.30
2009,05,31,03,41,13.20
2009,05,31,03,42,13.20
2009,05,31,03,43,13.20
2009,05,31,03,44,13.20
2009,05,31,03,45,13.20
2009,05,31,03,46,13.30
2009,05,31,03,47,13.30
2009,05,31,03,48,13.30
2009,05,31,03,49,13.30
2009,05,31,03,50,13.40
2009,05,31,03,51,13.50
2009,05,31,03,52,13.50
2009,05,31,03,53,13.60
2009,05,31,03,54,13.60
2009,05,31,03,55,13.70
2009,05,31,03,56,13.70
2009,05,31,03,57,13.70
2009,05,31,03,58,13.70
2009,05,31,03,59,13.80
2009,05,31,04,00,13.80
2009,05,31,04,01,13.90
2009,05,31,04,02,13.90
2009,05,31,04,03,13.90
2009,05,31,04,04,14.00
2009,05,31,04,05,14.00
2009,05,31,04,06,14.00
2009,05,31,04,07,14.00
2009,05,31,04,08,14.00
2009,05,31,04,09,14.00
2009,05,31,04,10,13.90
2009,05,31,04,11,13.90
2009,05,31,04,12,13.90
2009,05,31,04,13,13.90
2009,05,31,04,14,13.80
2009,05,31,04,15,13.80
2009,05,31,04,16,13.80
2009,05,31,04,17,13.70
2009,05,31,04,18,13.70
2009,05,31,04,19,13.70
2009,05,31,04,20,13.60
2009,05,31,04,21,13.50
2009,05,31,04,22,13.50
2009,05,31,04,23,13.40
2009,05,31,04,24,13.40
2009,05,31,04,25,13.30
2009,05,31,04,26,13.30
2009,05,31,04,27,13.30
2009,05,31,04,28,13.30
2009,05,31,04,29,13.30
2009,05,31,04,30,13.20
2009,05,31,04,31,13.20
2009,05,31,04,32,13.20
2009,05,31,04,33,13.10
2009,05,31,04,34,13.10
2009,05,31,04,35,13.10
2009,05,31,04,36,13.00
2009,05,31,04,37,13.00
2009,05,31,04,38,13.00
2009,05,31,04,39,12.90
2009,05,31,04,40,12.90
2009,05,31,04,41,12.80
2009,05,31,04,42,12.80
2009,05,31,04,43,12.80
2009,05,31,04,44,12.80
2009,05,31,04,45,12.70
2009,05,31,04,46,12.70
2009,05,31,04,47,12.60
2009,05,31,04,48,12.60
2009,05,31,04,49,12.50
2009,05,31,04,50,12.50
2009,05,31,04,51,12.50
2009,05,31,04,52,12.40
2009,05,31,04,53,12.40
2009,05,31,04,54,12.40
2009,05,31,04,55,12.30
2009,05,31,04,56,12.30
2009,05,31,04,57,12.30
2009,05,31,04,58,12.30
2009,05,31,04,59,12.30
2009,05,31,05,00,12.30
2009,05,31,05,01,12.30
2009,05,31,05,02,12.30
2009,05,31,05,03,12.30
2009,05,31,05,04,12.30
2009,05,31,05,05,12.30
2009,05,31,05,06,12.30
2009,05,31,05,07,12.30
2009,05,31,05,08,12.30
2009,05,31,05,09,12.40
2009,05,31,05,10,12.40
2009,05,31,05,11,12.40
2009,05,31,05,12,12.40
2009,05,31,05,13,12.50
2009,05,31,05,14,12.50
2009,05,31,05,15,12.50
2009,05,31,05,16,12.50
2009,05,31,05,17,12.50
2009,05,31,05,18,12.50
2009,05,31,05,19,12.50
2009,05,31,05,20,12.60
2009,05,31,05,21,12.60
2009,05,31,05,22,12.60
2009,05,31,05,23,12.60
2009,05,31,05,24,12.60
2009,05,31,05,25,12.60
2009,05,31,05,26,12.60
2009,05,31,05,27,12.60
2009,05,31,05,28,12.60
2009,05,31,05,29,12.60
2009,05,31,05,30,12.60
2009,05,31,05,31,12.60
2009,05,31,05,32,12.60
2009,05,31,05,33,12.60
2009,05,31,05,34,12.70
2009,05,31,05,35,12.70
2009,05,31,05,36,12.70
2009,05,31,05,37,12.80
2009,05,31,05,38,12.80
2009,05,31,05,39,12.80
2009,05,31,05,40,12.80
2009,05,31,05,41,12.80
2009,05,31,05,42,12.80
2009,05,31,05,43,12.80
2009,05,31,05,44,12.80
2009,05,31,05,45,12.90
2009,05,31,05,46,12.90
2009,05,31,05,47,13.00
2009,05,31,05,48,13.00
2009,05,31,05,49,13.00
2009,05,31,05,50,13.00
2009,05,31,05,51,13.10
2009,05,31,05,52,13.10
2009,05,31,05,53,13.10
2009,05,31,05,54,13.10
2009,05,31,05,55,13.10
2009,05,31,05,56,13.00
2009,05,31,05,57,13.00
2009,05,31,05,58,13.00
2009,05,31,05,59,13.00
2009,05,31,06,00,12.90
2009,05,31,06,01,12.90
2009,05,31,06,02,13.00
2009,05,31,06,03,13.00
2009,05,31,06,04,13.10
2009,05,31,06,05,13.20
2009,05,31,06,06,13.20
2009,05,31,06,07,13.30
2009,05,31,06,08,13.30
2009,05,31,06,09,13.40
2009,05,31,06,10,13.40
2009,05,31,06,11,13.50
2009,05,31,06,12,13.50
2009,05,31,06,13,13.50
2009,05,31,06,14,13.60
2009,05,31,06,15,13.60
2009,05,31,06,16,13.70
2009,05,31,06,17,13.70
2009,05,31,06,18,13.80
2009,05,31,06,19,13.80
2009,05,31,06,20,13.90
2009,05,31,06,21,13.90
2009,05,31,06,22,14.00
2009,05,31,06,23,14.00
2009,05,31,06,24,14.00
2009,05,31,06,25,14.10
2009,05,31,06,26,14.10
2009,05,31,06,27,14.20
2009,05,31,06,28,14.20
2009,05,31,06,29,14.20
2009,05,31,06,30,14.20
2009,05,31,06,31,14.30
2009,05,31,06,32,14.30
2009,05,31,06,33,14.30
2009,05,31,06,34,14.40
2009,05,31,06,35,14.40
2009,05,31,06,36,14.40
2009,05,31,06,37,14.40
2009,05,31,06,38,14.40
2009,05,31,06,39,14.40
2009,05,31,06,40,14.40
2009,05,31,06,41,14.40
2009,05,31,06,42,14.40
2009,05,31,06,43,14.40
2009,05,31,06,44,14.50
2009,05,31,06,45,14.50
2009,05,31,06,46,14.60
2009,05,31,06,47,14.60
2009,05,31,06,48,14.70
2009,05,31,06,49,14.70
2009,05,31,06,50,14.80
2009,05,31,06,51,14.80
2009,05,31,06,52,14.80
2009,05,31,06,53,14.80
2009,05,31,06,54,14.80
2009,05,31,06,55,14.80
2009,05,31,06,56,14.80
2009,05,31,06,57,14.80
2009,05,31,06,58,14.80
2009,05,31,06,59,14.80
2009,05,31,07,00,14.70
2009,05,31,07,01,14.70
2009,05,31,07,02,14.70
2009,05,31,07,03,14.70
2009,05,31,07,04,14.70
2009,05,31,07,05,14.80
2009,05,31,07,06,14.80
2009,05,31,07,07,14.90
2009,05,31,07,08,14.90
2009,05,31,07,09,15.00
2009,05,31,07,10,15.00
2009,05,31,07,11,15.10
2009,05,31,07,12,15.20
2009,05,31,07,13,15.30
2009,05,31,07,14,15.40
2009,05,31,07,15,15.50
2009,05,31,07,16,15.60
2009,05,31,07,17,15.70
2009,05,31,07,18,15.80
2009,05,31,07,19,15.80
2009,05,31,07,20,15.90
2009,05,31,07,21,16.00
2009,05,31,07,22,16.10
2009,05,31,07,23,16.20
2009,05,31,07,24,16.30
2009,05,31,07,25,16.40
2009,05,31,07,26,16.50
2009,05,31,07,27,16.60
2009,05,31,07,28,16.70
2009,05,31,07,29,16.90
2009,05,31,07,30,16.90
2009,05,31,07,31,17.00
2009,05,31,07,32,17.10
2009,05,31,07,33,17.20
2009,05,31,07,34,17.30
2009,05,31,07,35,17.30
2009,05,31,07,36,17.30
2009,05,31,07,37,17.30
2009,05,31,07,38,17.30
2009,05,31,07,39,17.20
2009,05,31,07,40,17.10
2009,05,31,07,41,17.10
2009,05,31,07,42,17.20
2009,05,31,07,43,17.20
2009,05,31,07,44,17.20
2009,05,31,07,45,17.30
2009,05,31,07,46,17.30
2009,05,31,07,47,17.30
2009,05,31,07,48,17.20
2009,05,31,07,49,17.20
2009,05,31,07,50,17.30
2009,05,31,07,51,17.30
2009,05,31,07,52,17.20
2009,05,31,07,53,17.10
2009,05,31,07,54,17.00
2009,05,31,07,55,17.00
2009,05,31,07,56,16.90
2009,05,31,07,57,16.80
2009,05,31,07,58,16.80
2009,05,31,07,59,16.80
2009,05,31,08,00,16.70
2009,05,31,08,01,16.70
2009,05,31,08,02,16.60
2009,05,31,08,03,16.60
2009,05,31,08,04,16.50
2009,05,31,08,05,16.40
2009,05,31,08,06,16.40
2009,05,31,08,07,16.40
2009,05,31,08,08,16.40
2009,05,31,08,09,16.30
2009,05,31,08,10,16.30
2009,05,31,08,11,16.20
2009,05,31,08,12,16.20
2009,05,31,08,13,16.30
2009,05,31,08,14,16.30
2009,05,31,08,15,16.30
2009,05,31,08,16,16.40
2009,05,31,08,17,16.40
2009,05,31,08,18,16.50
2009,05,31,08,19,16.60
2009,05,31,08,20,16.70
2009,05,31,08,21,16.70
2009,05,31,08,22,16.60
2009,05,31,08,23,16.50
2009,05,31,08,24,16.40
2009,05,31,08,25,16.40
2009,05,31,08,26,16.40
2009,05,31,08,27,16.30
2009,05,31,08,28,16.30
2009,05,31,08,29,16.30
2009,05,31,08,30,16.30
2009,05,31,08,31,16.40
2009,05,31,08,32,16.40
2009,05,31,08,33,16.40
2009,05,31,08,34,16.30
2009,05,31,08,35,16.30
2009,05,31,08,36,16.40
2009,05,31,08,37,16.40
2009,05,31,08,38,16.50
2009,05,31,08,39,16.60
2009,05,31,08,40,16.60
2009,05,31,08,41,16.70
2009,05,31,08,42,16.70
2009,05,31,08,43,16.60
2009,05,31,08,44,16.50
2009,05,31,08,45,16.40
2009,05,31,08,46,16.40
2009,05,31,08,47,16.40
2009,05,31,08,48,16.40
2009,05,31,08,49,16.40
2009,05,31,08,50,16.30
2009,05,31,08,51,16.30
2009,05,31,08,52,16.20
2009,05,31,08,53,16.10
2009,05,31,08,54,16.00
2009,05,31,08,55,15.90
2009,05,31,08,56,15.90
2009,05,31,08,57,15.80
2009,05,31,08,58,15.80
2009,05,31,08,59,15.80
2009,05,31,09,00,15.90
2009,05,31,09,01,16.00
2009,05,31,09,02,16.20
2009,05,31,09,03,16.30
2009,05,31,09,04,16.30
2009,05,31,09,05,16.30
2009,05,31,09,06,16.20
2009,05,31,09,07,16.20
2009,05,31,09,08,16.30
2009,05,31,09,09,16.30
2009,05,31,09,10,16.30
2009,05,31,09,11,16.30
2009,05,31,09,12,16.30
2009,05,31,09,13,16.30
2009,05,31,09,14,16.30
2009,05,31,09,15,16.30
2009,05,31,09,16,16.20
2009,05,31,09,17,16.20
2009,05,31,09,18,16.10
2009,05,31,09,19,16.20
2009,05,31,09,20,16.20
2009,05,31,09,21,16.20
2009,05,31,09,22,16.30
2009,05,31,09,23,16.30
2009,05,31,09,24,16.30
2009,05,31,09,25,16.20
2009,05,31,09,26,16.30
2009,05,31,09,27,16.30
2009,05,31,09,28,16.30
2009,05,31,09,29,16.30
2009,05,31,09,30,16.20
2009,05,31,09,31,16.20
2009,05,31,09,32,16.20
2009,05,31,09,33,16.30
2009,05,31,09,34,16.40
2009,05,31,09,35,16.40
2009,05,31,09,36,16.40
2009,05,31,09,37,16.50
2009,05,31,09,38,16.60
2009,05,31,09,39,16.60
2009,05,31,09,40,16.60
2009,05,31,09,41,16.70
2009,05,31,09,42,16.70
2009,05,31,09,43,16.60
2009,05,31,09,44,16.50
2009,05,31,09,45,16.40
2009,05,31,09,46,16.30
2009,05,31,09,47,16.20
2009,05,31,09,48,16.10
2009,05,31,09,49,16.10
2009,05,31,09,50,16.00
2009,05,31,09,51,15.90
2009,05,31,09,52,15.90
2009,05,31,09,53,15.80
2009,05,31,09,54,15.70
2009,05,31,09,55,15.60
2009,05,31,09,56,15.60
2009,05,31,09,57,15.60
2009,05,31,09,58,15.60
2009,05,31,09,59,15.70
2009,05,31,10,00,15.60
2009,05,31,10,01,15.60
2009,05,31,10,02,15.50
2009,05,31,10,03,15.60
2009,05,31,10,04,15.50
2009,05,31,10,05,15.50
2009,05,31,10,06,15.50
2009,05,31,10,07,15.60
2009,05,31,10,08,15.50
2009,05,31,10,09,15.50
2009,05,31,10,10,15.50
2009,05,31,10,11,15.40
2009,05,31,10,12,15.40
2009,05,31,10,13,15.40
2009,05,31,10,14,15.50
2009,05,31,10,15,15.40
2009,05,31,10,16,15.50
2009,05,31,10,17,15.50
2009,05,31,10,18,15.60
2009,05,31,10,19,15.70
2009,05,31,10,20,15.80
2009,05,31,10,21,15.80
2009,05,31,10,22,15.90
2009,05,31,10,23,16.00
2009,05,31,10,24,16.10
2009,05,31,10,25,16.10
2009,05,31,10,26,16.20
2009,05,31,10,27,16.20
2009,05,31,10,28,16.20
2009,05,31,10,29,16.20
2009,05,31,10,30,16.20
2009,05,31,10,31,16.20
2009,05,31,10,32,16.10
2009,05,31,10,33,16.10
2009,05,31,10,34,16.10
2009,05,31,10,35,16.10
2009,05,31,10,36,16.20
2009,05,31,10,37,16.20
2009,05,31,10,38,16.20
2009,05,31,10,39,16.30
2009,05,31,10,40,16.40
2009,05,31,10,41,16.40
2009,05,31,10,42,16.50
2009,05,31,10,43,16.60
2009,05,31,10,44,16.70
2009,05,31,10,45,16.70
2009,05,31,10,46,16.80
2009,05,31,10,47,16.70
2009,05,31,10,48,16.60
2009,05,31,10,49,16.60
2009,05,31,10,50,16.70
2009,05,31,10,51,16.70
2009,05,31,10,52,16.80
2009,05,31,10,53,16.80
2009,05,31,10,54,16.80
2009,05,31,10,55,16.90
2009,05,31,10,56,17.00
2009,05,31,10,57,17.00
2009,05,31,10,58,17.10
2009,05,31,10,59,17.00
2009,05,31,11,00,16.90
2009,05,31,11,01,16.90
2009,05,31,11,02,16.90
2009,05,31,11,03,17.00
2009,05,31,11,04,17.00
2009,05,31,11,05,17.20
2009,05,31,11,06,17.30
2009,05,31,11,07,17.40
2009,05,31,11,08,17.40
2009,05,31,11,09,17.20
2009,05,31,11,10,17.00
2009,05,31,11,11,16.90
2009,05,31,11,12,16.80
2009,05,31,11,13,16.70
2009,05,31,11,14,16.70
2009,05,31,11,15,16.60
2009,05,31,11,16,16.60
2009,05,31,11,17,16.50
2009,05,31,11,18,16.40
2009,05,31,11,19,16.40
2009,05,31,11,20,16.40
2009,05,31,11,21,16.50
2009,05,31,11,22,16.40
2009,05,31,11,23,16.50
2009,05,31,11,24,16.40
2009,05,31,11,25,16.50
2009,05,31,11,26,16.60
2009,05,31,11,27,16.60
2009,05,31,11,28,16.60
2009,05,31,11,29,16.60
2009,05,31,11,30,16.70
2009,05,31,11,31,16.70
2009,05,31,11,32,16.70
2009,05,31,11,33,16.70
2009,05,31,11,34,16.60
2009,05,31,11,35,16.60
2009,05,31,11,36,16.60
2009,05,31,11,37,16.50
2009,05,31,11,38,16.60
2009,05,31,11,39,16.60
2009,05,31,11,40,16.60
2009,05,31,11,41,16.70
2009,05,31,11,42,16.70
2009,05,31,11,43,16.70
2009,05,31,11,44,16.80
2009,05,31,11,45,16.80
2009,05,31,11,46,16.90
2009,05,31,11,47,16.90
2009,05,31,11,48,16.80
2009,05,31,11,49,16.80
2009,05,31,11,50,16.90
2009,05,31,11,51,17.00
2009,05,31,11,52,17.00
2009,05,31,11,53,17.10
2009,05,31,11,54,17.20
2009,05,31,11,55,17.30
2009,05,31,11,56,17.30
2009,05,31,11,57,17.30
2009,05,31,11,58,17.30
2009,05,31,11,59,17.30
2009,05,31,12,00,17.30
2009,05,31,12,01,17.40
2009,05,31,12,02,17.40
2009,05,31,12,03,17.50
2009,05,31,12,04,17.70
2009,05,31,12,05,17.70
2009,05,31,12,06,17.70
2009,05,31,12,07,17.70
2009,05,31,12,08,17.60
2009,05,31,12,09,17.70
2009,05,31,12,10,17.70
2009,05,31,12,11,17.70
2009,05,31,12,12,17.80
2009,05,31,12,13,17.70
2009,05,31,12,14,17.80
2009,05,31,12,15,17.80
2009,05,31,12,16,17.80
2009,05,31,12,17,17.80
2009,05,31,12,18,17.70
2009,05,31,12,19,17.70
2009,05,31,12,20,17.60
2009,05,31,12,21,17.50
2009,05,31,12,22,17.40
2009,05,31,12,23,17.30
2009,05,31,12,24,17.30
2009,05,31,12,25,17.30
2009,05,31,12,26,17.10
2009,05,31,12,27,17.10
2009,05,31,12,28,17.10
2009,05,31,12,29,17.10
2009,05,31,12,30,17.10
2009,05,31,12,31,17.10
2009,05,31,12,32,17.20
2009,05,31,12,33,17.20
2009,05,31,12,34,17.20
2009,05,31,12,35,17.30
2009,05,31,12,36,17.40
2009,05,31,12,37,17.50
2009,05,31,12,38,17.70
2009,05,31,12,39,17.90
2009,05,31,12,40,17.90
2009,05,31,12,41,18.10
2009,05,31,12,42,18.20
2009,05,31,12,43,18.40
2009,05,31,12,44,18.50
2009,05,31,12,45,18.50
2009,05,31,12,46,18.50
2009,05,31,12,47,18.50
2009,05,31,12,48,18.50
2009,05,31,12,49,18.50
2009,05,31,12,50,18.50
2009,05,31,12,51,18.50
2009,05,31,12,52,18.50
2009,05,31,12,53,18.50
2009,05,31,12,54,18.40
2009,05,31,12,55,18.40
2009,05,31,12,56,18.50
2009,05,31,12,57,18.50
2009,05,31,12,58,18.60
2009,05,31,12,59,18.50
2009,05,31,13,00,18.50
2009,05,31,13,01,18.30
2009,05,31,13,02,18.30
2009,05,31,13,03,18.20
2009,05,31,13,04,18.10
2009,05,31,13,05,18.10
2009,05,31,13,06,18.10
2009,05,31,13,07,18.20
2009,05,31,13,08,18.10
2009,05,31,13,09,18.10
2009,05,31,13,10,18.10
2009,05,31,13,11,18.00
2009,05,31,13,12,17.90
2009,05,31,13,13,17.90
2009,05,31,13,14,17.90
2009,05,31,13,15,17.90
2009,05,31,13,16,18.10
2009,05,31,13,17,18.20
2009,05,31,13,18,18.30
2009,05,31,13,19,18.40
2009,05,31,13,20,18.50
2009,05,31,13,21,18.50
2009,05,31,13,22,18.60
2009,05,31,13,23,18.60
2009,05,31,13,24,18.70
2009,05,31,13,25,18.80
2009,05,31,13,26,18.90
2009,05,31,13,27,18.90
2009,05,31,13,28,19.10
2009,05,31,13,29,19.20
2009,05,31,13,30,19.30
2009,05,31,13,31,19.30
2009,05,31,13,32,19.20
2009,05,31,13,33,19.10
2009,05,31,13,34,19.10
2009,05,31,13,35,18.90
2009,05,31,13,36,18.90
2009,05,31,13,37,18.80
2009,05,31,13,38,18.70
2009,05,31,13,39,18.60
2009,05,31,13,40,18.40
2009,05,31,13,41,18.30
2009,05,31,13,42,18.20
2009,05,31,13,43,18.20
2009,05,31,13,44,18.30
2009,05,31,13,45,18.30
2009,05,31,13,46,18.30
2009,05,31,13,47,18.40
2009,05,31,13,48,18.50
2009,05,31,13,49,18.60
2009,05,31,13,50,18.70
2009,05,31,13,51,18.70
2009,05,31,13,52,18.80
2009,05,31,13,53,18.90
2009,05,31,13,54,18.90
2009,05,31,13,55,18.90
2009,05,31,13,56,18.90
2009,05,31,13,57,18.90
2009,05,31,13,58,18.80
2009,05,31,13,59,18.70
2009,05,31,14,00,18.70
2009,05,31,14,01,18.70
2009,05,31,14,02,18.60
2009,05,31,14,03,18.50
2009,05,31,14,04,18.40
2009,05,31,14,05,18.40
2009,05,31,14,06,18.40
2009,05,31,14,07,18.40
2009,05,31,14,08,18.40
2009,05,31,14,09,18.40
2009,05,31,14,10,18.40
2009,05,31,14,11,18.40
2009,05,31,14,12,18.40
2009,05,31,14,13,18.40
2009,05,31,14,14,18.50
2009,05,31,14,15,18.60
2009,05,31,14,16,18.70
2009,05,31,14,17,18.90
2009,05,31,14,18,19.00
2009,05,31,14,19,19.10
2009,05,31,14,20,19.20
2009,05,31,14,21,19.40
2009,05,31,14,22,19.60
2009,05,31,14,23,19.70
2009,05,31,14,24,19.80
2009,05,31,14,25,19.90
2009,05,31,14,26,19.90
2009,05,31,14,27,20.00
2009,05,31,14,28,20.20
2009,05,31,14,29,20.20
2009,05,31,14,30,20.30
2009,05,31,14,31,20.40
2009,05,31,14,32,20.50
2009,05,31,14,33,20.60
2009,05,31,14,34,20.70
2009,05,31,14,35,20.70
2009,05,31,14,36,20.70
2009,05,31,14,37,20.60
2009,05,31,14,38,20.60
2009,05,31,14,39,20.60
2009,05,31,14,40,20.60
2009,05,31,14,41,20.70
2009,05,31,14,42,20.70
2009,05,31,14,43,20.60
2009,05,31,14,44,20.60
2009,05,31,14,45,20.70
2009,05,31,14,46,20.70
2009,05,31,14,47,20.80
2009,05,31,14,48,20.80
2009,05,31,14,49,20.90
2009,05,31,14,50,21.00
2009,05,31,14,51,21.00
2009,05,31,14,52,21.10
2009,05,31,14,53,21.20
2009,05,31,14,54,21.20
2009,05,31,14,55,21.20
2009,05,31,14,56,21.30
2009,05,31,14,57,21.30
2009,05,31,14,58,21.20
2009,05,31,14,59,20.80
2009,05,31,15,00,20.50
2009,05,31,15,01,20.30
2009,05,31,15,02,20.20
2009,05,31,15,03,20.00
2009,05,31,15,04,19.90
2009,05,31,15,05,19.90
2009,05,31,15,06,19.90
2009,05,31,15,07,19.90
2009,05,31,15,08,19.90
2009,05,31,15,09,19.80
2009,05,31,15,10,19.90
2009,05,31,15,11,19.90
2009,05,31,15,12,19.90
2009,05,31,15,13,20.10
2009,05,31,15,14,20.10
2009,05,31,15,15,20.20
2009,05,31,15,16,20.30
2009,05,31,15,17,20.30
2009,05,31,15,18,20.30
2009,05,31,15,19,20.40
2009,05,31,15,20,20.50
2009,05,31,15,21,20.60
2009,05,31,15,22,20.70
2009,05,31,15,23,20.70
2009,05,31,15,24,20.70
2009,05,31,15,25,20.60
2009,05,31,15,26,20.60
2009,05,31,15,27,20.60
2009,05,31,15,28,20.70
2009,05,31,15,29,20.80
2009,05,31,15,30,21.00
2009,05,31,15,31,21.10
2009,05,31,15,32,21.20
2009,05,31,15,33,21.30
2009,05,31,15,34,21.50
2009,05,31,15,35,21.60
2009,05,31,15,36,21.70
2009,05,31,15,37,21.90
2009,05,31,15,38,22.00
2009,05,31,15,39,22.10
2009,05,31,15,40,22.20
2009,05,31,15,41,22.30
2009,05,31,15,42,22.40
2009,05,31,15,43,22.50
2009,05,31,15,44,22.50
2009,05,31,15,45,22.60
2009,05,31,15,46,22.70
2009,05,31,15,47,22.80
2009,05,31,15,48,22.80
2009,05,31,15,49,22.80
2009,05,31,15,50,22.90
2009,05,31,15,51,22.90
2009,05,31,15,52,22.90
2009,05,31,15,53,22.80
2009,05,31,15,54,22.80
2009,05,31,15,55,22.90
2009,05,31,15,56,22.80
2009,05,31,15,57,22.90
2009,05,31,15,58,22.90
2009,05,31,15,59,22.90
2009,05,31,16,00,22.80
2009,05,31,16,01,22.80
2009,05,31,16,02,22.80
2009,05,31,16,03,22.80
2009,05,31,16,04,22.80
2009,05,31,16,05,22.80
2009,05,31,16,06,22.70
2009,05,31,16,07,22.60
2009,05,31,16,08,22.60
2009,05,31,16,09,22.50
2009,05,31,16,10,22.40
2009,05,31,16,11,22.40
2009,05,31,16,12,22.30
2009,05,31,16,13,22.20
2009,05,31,16,14,22.30
2009,05,31,16,15,22.30
2009,05,31,16,16,22.40
2009,05,31,16,17,22.50
2009,05,31,16,18,22.60
2009,05,31,16,19,22.60
2009,05,31,16,20,22.70
2009,05,31,16,21,22.80
2009,05,31,16,22,22.80
2009,05,31,16,23,22.90
2009,05,31,16,24,22.90
2009,05,31,16,25,22.90
2009,05,31,16,26,22.90
2009,05,31,16,27,22.90
2009,05,31,16,28,22.90
2009,05,31,16,29,22.90
2009,05,31,16,30,22.90
2009,05,31,16,31,22.90
2009,05,31,16,32,22.90
2009,05,31,16,33,22.80
2009,05,31,16,34,22.70
2009,05,31,16,35,22.70
2009,05,31,16,36,22.70
2009,05,31,16,37,22.70
2009,05,31,16,38,22.80
2009,05,31,16,39,22.80
2009,05,31,16,40,22.90
2009,05,31,16,41,22.90
2009,05,31,16,42,22.90
2009,05,31,16,43,22.90
2009,05,31,16,44,22.90
2009,05,31,16,45,23.00
2009,05,31,16,46,23.10
2009,05,31,16,47,23.10
2009,05,31,16,48,23.10
2009,05,31,16,49,23.20
2009,05,31,16,50,23.20
2009,05,31,16,51,23.30
2009,05,31,16,52,23.20
2009,05,31,16,53,23.20
2009,05,31,16,54,23.20
2009,05,31,16,55,23.20
2009,05,31,16,56,23.20
2009,05,31,16,57,23.10
2009,05,31,16,58,23.00
2009,05,31,16,59,22.90
2009,05,31,17,00,22.70
2009,05,31,17,01,22.70
2009,05,31,17,02,22.60
2009,05,31,17,03,22.50
2009,05,31,17,04,22.50
2009,05,31,17,05,22.50
2009,05,31,17,06,22.40
2009,05,31,17,07,22.40
2009,05,31,17,08,22.40
2009,05,31,17,09,22.40
2009,05,31,17,10,22.30
2009,05,31,17,11,22.30
2009,05,31,17,12,22.20
2009,05,31,17,13,22.10
2009,05,31,17,14,22.00
2009,05,31,17,15,22.00
2009,05,31,17,16,22.00
2009,05,31,17,17,22.00
2009,05,31,17,18,22.00
2009,05,31,17,19,22.10